Home   Weather   Arnstadt   Past weeks

Flag for Germany Past Weather in Arnstadt, Thuringia, Germany — Yesterday and Last 2 Weeks

Now
54 °F

Clear.


Feels Like: 51 °F
Forecast: 51 / 60 °F
Wind: 8 mph from Southwest

Location: Erfurt-Bindersleben

Current Time: Oct 2, 2016 at 12:29:49 AM

Latest Report: Oct 1, 2016 at 11:50 PM


Visibility: 10 mi

Pressure: 29.83 "Hg

Humidity: 94%

Dew Point: 52 °F

Location of ArnstadtLocation

Past Weather in Arnstadt — Graph

°F

Arnstadt Temperature Yesterday

Maximum temperature yesterday: 61 °F (at 1:50 PM)
Minimum temperature yesterday: 48 °F (at 12:20 AM)
Average temperature yesterday: 54 °F

High & Low Weather Summary for the Past Weeks

 TemperatureHumidityPressure
High75 °F (Sep 29, 3:20 PM)100% (Sep 17, 2:20 AM)30.33 "Hg (Sep 17, 2:20 AM)
Low43 °F (Sep 21, 5:50 AM)40% (Sep 23, 3:50 PM)29.77 "Hg (Oct 1, 4:20 PM)
Average58 °F79%30.10 "Hg
* Reported Sep 16 11:20 PM — Oct 1 11:20 PM, Arnstadt, Weather by CustomWeather, © 2016

Note: Actual official high and low records may vary slightly from our data, if they occured in-between our weather recording intervals... More about our weather records

Advertising

Arnstadt Weather History for the Previous 24 Hours

Scroll right to see more
 ConditionsComfort  
Time TempWeatherWind HumidityBarometerVisibility
11:20 PM
Sat, Oct 1
55 °FClear.7 mph94%29.83 "Hg10 mi
10:50 PM55 °FClear.9 mph94%29.83 "Hg10 mi
10:20 PM55 °FPassing clouds.10 mph94%29.83 "HgN/A
9:50 PM57 °FPartly cloudy.12 mph94%29.83 "HgN/A
9:20 PM57 °FSprinkles. Partly cloudy.8 mph100%29.80 "HgN/A
8:50 PM57 °FSprinkles. Partly cloudy.9 mph100%29.80 "HgN/A
8:20 PM59 °FSprinkles. Partly cloudy.9 mph88%29.80 "HgN/A
7:50 PM59 °FPassing clouds.10 mph88%29.80 "HgN/A
7:20 PM59 °FPartly cloudy.12 mph88%29.80 "HgN/A
6:50 PM59 °FSprinkles. Broken clouds.10 mph88%29.77 "HgN/A
6:20 PM61 °FPartly sunny.6 mph83%29.77 "HgN/A
5:50 PM61 °FPartly sunny.7 mph88%29.77 "HgN/A
5:20 PM59 °FBroken clouds.8 mph94%29.77 "HgN/A
4:50 PM61 °FSprinkles. Broken clouds.12 mph83%29.77 "HgN/A
4:20 PM61 °FSprinkles. Broken clouds.9 mph83%29.77 "HgN/A
3:50 PM61 °FSprinkles. Broken clouds.8 mph83%29.80 "HgN/A
3:20 PM61 °FBroken clouds.8 mph83%29.80 "HgN/A
2:50 PM61 °FBroken clouds.7 mph88%29.80 "HgN/A
2:20 PM59 °FDrizzle. Broken clouds.12 mph94%29.80 "HgN/A
1:50 PM61 °FPartly sunny.5 mph88%29.83 "HgN/A
1:20 PM59 °FLight rain. Broken clouds.6 mph94%29.83 "HgN/A
12:50 PM57 °FLight rain. Partly sunny.5 mph94%29.83 "HgN/A
12:20 PM55 °FBroken clouds.3 mph94%29.83 "HgN/A
11:50 AM54 °FPartly sunny.3 mph94%29.83 "HgN/A
11:20 AM54 °FPartly sunny.2 mph94%29.83 "HgN/A
10:50 AM54 °FPartly sunny.2 mph94%29.86 "HgN/A
10:20 AM52 °FPartly sunny.3 mph94%29.86 "HgN/A
9:50 AM50 °FLight rain. Broken clouds.1 mph100%29.86 "HgN/A
9:20 AM50 °FLight rain. Partly sunny.No wind94%29.86 "HgN/A
8:50 AM50 °FLight rain. Broken clouds.2 mph94%29.86 "HgN/A
8:20 AM48 °FLight rain. Broken clouds.1 mph100%29.86 "HgN/A
7:50 AM48 °FLight rain. Partly sunny.2 mph100%29.86 "HgN/A
7:20 AM50 °FLight rain. Mostly cloudy.3 mph94%29.86 "HgN/A
6:50 AM50 °FLight rain. Mostly cloudy.No wind94%29.89 "HgN/A
6:20 AM50 °FLight rain. Passing clouds.No wind94%29.89 "HgN/A
5:50 AM50 °FLight rain. Clear.No wind94%29.89 "HgN/A
5:20 AM50 °FPassing clouds.3 mph88%29.89 "HgN/A
4:50 AM50 °FClear.5 mph94%29.92 "Hg10 mi
4:20 AM50 °FClear.3 mph88%29.92 "Hg10 mi
3:50 AM50 °FClear.1 mph88%29.92 "Hg10 mi
3:20 AM50 °FClear.6 mph88%29.92 "Hg10 mi
2:50 AM48 °FClear.6 mph94%29.95 "Hg10 mi
2:20 AM48 °FClear.8 mph94%29.95 "Hg10 mi
1:50 AM48 °FClear.9 mph94%29.95 "Hg10 mi
1:20 AM48 °FClear.9 mph94%29.98 "Hg10 mi
12:50 AM48 °FClear.6 mph94%29.98 "Hg10 mi
12:20 AM48 °FClear.7 mph94%29.98 "Hg10 mi
Weather by CustomWeather, © 2016

See weather overviewHow to use our weather pages